Location: Poughquag
(41.6090°N, 73.6820°W)
Time: 12:32:34
(UTC-04:00)

Transit 4A - Pass Details

Date: 02 June 2020
Orbit: 866 x 978 km, 66.8° (Epoch: 06 July)

Event Time Altitude Azimuth Distance (km) Brightness Sun altitude
Rises 10:50:26 0° 329° (NNW) 3,572 10.7 57.9°
Reaches altitude 10° 10:52:56 10° 329° (NNW) 2,642 10.1 58.3°
Maximum altitude 10:59:07 88° 241° (WSW) 956 9.2 59.3°
Drops below altitude 10° 11:05:26 10° 153° (SSE) 2,696 10.9 60.4°
Sets 11:08:00 0° 153° (SSE) 3,648 11.4 60.8°
